Showing default

ELEKTRON 3, 829

Orbit data source: Space-Track

ELEKTRON 3, 829 is a payload satellite owned by OKB-1 (CIS) that was launched on Fri, 10 Jul 1964 UTC via a VOSTOK 8K72 launch vehicle from the Tyuratam Missile And Space Complex (TTMTR). Payload-class satellites include a variety of spacecraft equipped with specific instruments for various scientific and technological missions. These include communications satellites like Starlink; space stations such as the ISS; scientific satellites like the Hubble; Earth observation satellites from companies like Planet Labs, Umbra, and HawkEye 360; GPS; miniature CubeSats for education and research; and military/defense satellites.

Loading next visibility...
Identifier
829, 1964-038A
Orbit
Active
Country
Flag of CISCIS
Related business
Manufacturer
OKB-1
Mission
Spacecraft
Bus & Motor
OBJECT D, Unknown motor
Mass
350 kg wet, 350 kg dry
Launch date (UTC)
1964-07-10 (61 years ago)
Launch vehicle
VOSTOK 8K72
Launch site
Tyuratam Missile And Space Complex (TTMTR)
Object type
Payload
Rocket body
Debris
Shape & HBR
Unknown
Radar Cross Section
Large (>1 m²)

Expand to show TLE details & history
Last TLE update: 1 day ago

TLE from 1 day ago
0 ELEKTRON 3
1 00829U 64038A   25288.15210330  .00001197  00000-0  34176-3 0  9992
2 00829  60.8204 180.1062 2941002 283.4082  45.9073  9.20537152992871
Epoch: 2025-10-15T03:39Z
TLE epoch observation values (Epoch: 2025-10-15T03:39:01.725Z)
Latitude
0.00003°
Longitude
101.41874°
Altitude
1,851.29 km
Speed
7.447 km/s
True Right ascension
12h 00m 25s
True Declination
0° 00' 00"
Sunlit
Object was in daylight at epoch
Visualization orbit readout
Latitude
Unknown
Longitude
Unknown
Altitude
Unknown
Speed
Unknown
Apparent Right ascension
Unknown
Apparent Declination
Unknown
Sunlit
N/A
Visualization observer readout
Local Sidereal Time
07:09:53
Azimuth
Unknown
Elevation
Unknown
Doppler factor
Unknown
Orbital elements
Apogee altitude
6,066.297 km
Perigee altitude
409.995 km
Semi-major axis
9,616.283 km
Eccentricity
0.2941
Inclination
60.8204°
RAAN
180.1062°
Arg. of periapsis
283.4082°
True anomaly
76.68641°
Mean anomaly
45.9073°
Eccentric anomaly
60.58581°
Mean motion
2.30161 °/min
Orbital period
156.41 mins
BSTAR
0.00034176
Loading maneuver chart data...
Computing Atmospheric mass density...
Loading historical data...
Loading historical data...
Loading historical data...
Loading historical data...
Loading historical data...
Loading historical data...
Loading historical data...

Documentation

Showing up to 5 results
|